• In Russia
  • List of Countries
  • For 7 days
  • Water Temperature
  • Satellite Maps
  • Weather Map
  • Weather Widgets
  • user-avatar
    Login

    Hourly Weather Sagan-Nur

    Today, 22 September, Saturday

    Time Temperature Precipitation Wind Pressure Humidity
    00:00 -6°C° 0 mm 1 mps 575 mmHg 55%
    01:00 -6°C° 0 mm 1 mps 575 mmHg 54%
    02:00 -6°C° 0 mm 1 mps 575 mmHg 53%
    03:00 -6°C° 0 mm 1 mps 575 mmHg 52%
    04:00 -6°C° 0 mm 1 mps 575 mmHg 52%
    05:00 -6°C° 0 mm 1 mps 575 mmHg 50%
    06:00 -4°C° 0 mm 1 mps 576 mmHg 49%
    07:00 -6°C° 0 mm 2 mps 576 mmHg 51%
    08:00 -4°C° 0 mm 2 mps 577 mmHg 55%
    09:00 0°C° 0 mm 1 mps 577 mmHg 60%
    10:00 +2°C° 0 mm 1 mps 578 mmHg 64%
    11:00 +3°C° 0 mm 1 mps 578 mmHg 65%
    12:00 +3°C° 0 mm 1 mps 578 mmHg 65%
    13:00 +4°C° 0 mm 1 mps 578 mmHg 66%
    14:00 +4°C° 0 mm 1 mps 578 mmHg 64%
    15:00 +4°C° 0 mm 1 mps 578 mmHg 61%
    16:00 +5°C° 0 mm 1 mps 578 mmHg 59%
    17:00 +2°C° 0 mm 1 mps 577 mmHg 59%
    18:00 0°C° 0 mm 1 mps 576 mmHg 59%
    19:00 -1°C° 0 mm 1 mps 575 mmHg 59%
    20:00 -2°C° 0 mm 1 mps 575 mmHg 57%
    21:00 -2°C° 0 mm 1 mps 574 mmHg 56%
    22:00 -5°C° 0 mm 2 mps 574 mmHg 54%
    23:00 -5°C° 0 mm 2 mps 574 mmHg 53%

    Tomorrow, 23 September, Sunday

    Time Temperature Precipitation Wind Pressure Humidity
    00:00 -5°C° 0 mm 2 mps 574 mmHg 53%
    01:00 -5°C° 0 mm 2 mps 574 mmHg 52%
    02:00 -5°C° 0 mm 2 mps 574 mmHg 51%
    03:00 -2°C° 0 mm 1 mps 574 mmHg 51%
    04:00 -2°C° 0 mm 1 mps 574 mmHg 51%
    05:00 -2°C° 0 mm 1 mps 574 mmHg 50%
    06:00 -2°C° 0 mm 1 mps 574 mmHg 50%
    07:00 -1°C° 0 mm 1 mps 575 mmHg 50%
    08:00 0°C° 0 mm 1 mps 575 mmHg 55%
    09:00 +2°C° 0 mm 1 mps 575 mmHg 59%
    10:00 +4°C° 0 mm 1 mps 576 mmHg 63%
    11:00 +5°C° 0 mm 1 mps 576 mmHg 63%
    12:00 +5°C° 0 mm 1 mps 576 mmHg 64%
    13:00 +6°C° 0 mm 1 mps 576 mmHg 64%
    14:00 +6°C° 0 mm 1 mps 575 mmHg 63%
    15:00 +5°C° 0 mm 1 mps 575 mmHg 62%
    16:00 +5°C° 0 mm 1 mps 575 mmHg 61%
    17:00 +4°C° 0.1 mm 1 mps 574 mmHg 62%
    18:00 +3°C° 0.1 mm 1 mps 574 mmHg 62%
    19:00 +1°C° 0.1 mm 1 mps 573 mmHg 63%
    20:00 +1°C° 0 mm 1 mps 573 mmHg 64%
    21:00 0°C° 0 mm 1 mps 573 mmHg 65%
    22:00 0°C° 0 mm 1 mps 573 mmHg 66%
    23:00 -1°C° 0 mm 1 mps 573 mmHg 66%

    Day after tomorrow, 24 September, Monday

    Time Temperature Precipitation Wind Pressure Humidity
    00:00 -1°C° 0 mm 1 mps 572 mmHg 67%
    01:00 -1°C° 0 mm 1 mps 572 mmHg 67%
    02:00 -2°C° 0 mm 1 mps 572 mmHg 68%
    03:00 -2°C° 0 mm 1 mps 572 mmHg 68%
    04:00 -2°C° 0 mm 1 mps 572 mmHg 68%
    05:00 -2°C° 0 mm 1 mps 572 mmHg 68%
    06:00 -2°C° 0 mm 1 mps 572 mmHg 67%
    07:00 -1°C° 0 mm 1 mps 572 mmHg 66%
    08:00 0°C° 0 mm 1 mps 573 mmHg 67%
    09:00 +2°C° 0 mm 1 mps 573 mmHg 69%
    10:00 +4°C° 0 mm 1 mps 574 mmHg 70%
    11:00 +5°C° 0 mm 1 mps 574 mmHg 69%
    12:00 +5°C° 0 mm 1 mps 574 mmHg 68%
    13:00 +6°C° 0 mm 1 mps 574 mmHg 67%
    14:00 +6°C° 0 mm 1 mps 574 mmHg 65%
    15:00 +6°C° 0 mm 1 mps 574 mmHg 64%
    16:00 +6°C° 0 mm 1 mps 574 mmHg 63%
    17:00 +4°C° 0 mm 1 mps 573 mmHg 66%
    18:00 +2°C° 0 mm 1 mps 572 mmHg 69%
    19:00 0°C° 0 mm 1 mps 571 mmHg 73%
    20:00 0°C° 0 mm 1 mps 571 mmHg 73%
    21:00 0°C° 0 mm 1 mps 571 mmHg 73%
    22:00 0°C° 0 mm 1 mps 571 mmHg 73%
    23:00 0°C° 0 mm 1 mps 571 mmHg 73%

    25 September, Tuesday

    Time Temperature Precipitation Wind Pressure Humidity
    00:00 -1°C° 0 mm 1 mps 571 mmHg 73%
    01:00 -1°C° 0 mm 1 mps 571 mmHg 73%
    02:00 -1°C° 0 mm 1 mps 571 mmHg 72%
    03:00 -1°C° 0 mm 1 mps 571 mmHg 72%
    04:00 -1°C° 0 mm 1 mps 571 mmHg 72%
    05:00 -1°C° 0 mm 1 mps 571 mmHg 72%
    06:00 -1°C° 0 mm 1 mps 571 mmHg 71%
    07:00 0°C° 0 mm 1 mps 571 mmHg 71%
    08:00 +1°C° 0 mm 1 mps 572 mmHg 70%
    09:00 +3°C° 0 mm 1 mps 573 mmHg 70%
    10:00 +4°C° 0 mm 1 mps 573 mmHg 70%
    11:00 +4°C° 0.1 mm 1 mps 574 mmHg 70%
    12:00 +5°C° 0.1 mm 1 mps 574 mmHg 70%
    13:00 +5°C° 0.1 mm 1 mps 574 mmHg 71%
    14:00 +4°C° 0.3 mm 1 mps 574 mmHg 74%
    15:00 +4°C° 0.3 mm 1 mps 574 mmHg 77%
    16:00 +4°C° 0.3 mm 1 mps 574 mmHg 80%
    17:00 +3°C° 0.6 mm 1 mps 574 mmHg 83%
    18:00 +2°C° 0.6 mm 1 mps 574 mmHg 87%
    19:00 -1°C° 0.6 mm 2 mps 574 mmHg 90%
    20:00 -1°C° 0.8 mm 2 mps 574 mmHg 92%
    21:00 -2°C° 0.8 mm 2 mps 574 mmHg 93%
    22:00 -2°C° 0.8 mm 2 mps 574 mmHg 95%
    23:00 -2°C° 0.5 mm 2 mps 575 mmHg 95%

    26 September, Wednesday

    Time Temperature Precipitation Wind Pressure Humidity
    00:00 -3°C° 0.5 mm 2 mps 575 mmHg 95%
    01:00 -3°C° 0.5 mm 2 mps 575 mmHg 95%
    02:00 -4°C° 0.1 mm 2 mps 575 mmHg 95%
    03:00 -4°C° 0.1 mm 2 mps 575 mmHg 95%
    04:00 -5°C° 0.1 mm 2 mps 575 mmHg 96%
    05:00 -5°C° 0 mm 2 mps 575 mmHg 95%
    06:00 -5°C° 0 mm 2 mps 575 mmHg 95%
    07:00 -5°C° 0 mm 2 mps 576 mmHg 95%
    08:00 -4°C° 0 mm 2 mps 576 mmHg 91%
    09:00 -4°C° 0 mm 2 mps 576 mmHg 87%
    10:00 -3°C° 0 mm 2 mps 576 mmHg 83%
    11:00 -3°C° 0 mm 2 mps 576 mmHg 82%
    12:00 -2°C° 0 mm 2 mps 576 mmHg 81%
    13:00 -2°C° 0 mm 2 mps 576 mmHg 80%
    14:00 -2°C° 0 mm 3 mps 576 mmHg 80%
    15:00 -2°C° 0 mm 3 mps 576 mmHg 80%
    16:00 -2°C° 0 mm 3 mps 576 mmHg 81%
    17:00 -2°C° 0 mm 3 mps 576 mmHg 84%
    18:00 -3°C° 0 mm 2 mps 576 mmHg 88%
    19:00 -4°C° 0 mm 2 mps 576 mmHg 91%
    20:00 -4°C° 0.4 mm 2 mps 576 mmHg 92%
    21:00 -4°C° 0.4 mm 2 mps 576 mmHg 93%
    22:00 -4°C° 0.4 mm 2 mps 576 mmHg 94%
    23:00 -4°C° 0.9 mm 2 mps 576 mmHg 94%

    27 September, Thursday

    Time Temperature Precipitation Wind Pressure Humidity
    00:00 -4°C° 0.9 mm 3 mps 576 mmHg 95%
    01:00 -4°C° 0.9 mm 3 mps 576 mmHg 95%
    02:00 -4°C° 0.8 mm 3 mps 576 mmHg 95%
    03:00 -4°C° 0.8 mm 3 mps 576 mmHg 95%
    04:00 -4°C° 0.8 mm 3 mps 576 mmHg 95%
    05:00 -4°C° 0.8 mm 3 mps 576 mmHg 95%
    06:00 -4°C° 0.8 mm 3 mps 576 mmHg 95%
    07:00 -4°C° 0.8 mm 3 mps 576 mmHg 95%
    08:00 -4°C° 0.4 mm 3 mps 576 mmHg 95%
    09:00 -2°C° 0.4 mm 3 mps 576 mmHg 95%
    10:00 -2°C° 0.4 mm 3 mps 576 mmHg 94%
    11:00 -1°C° 0.2 mm 3 mps 576 mmHg 93%
    12:00 -2°C° 0.2 mm 4 mps 576 mmHg 92%
    13:00 -2°C° 0.2 mm 4 mps 576 mmHg 91%
    14:00 -2°C° 0.3 mm 4 mps 576 mmHg 91%
    15:00 -2°C° 0.3 mm 4 mps 576 mmHg 91%
    16:00 -2°C° 0.3 mm 5 mps 577 mmHg 92%
    17:00 -2°C° 0.6 mm 4 mps 577 mmHg 93%
    18:00 -2°C° 0.6 mm 3 mps 577 mmHg 94%
    19:00 -2°C° 0.6 mm 3 mps 578 mmHg 96%
    20:00 -2°C° 0.5 mm 2 mps 578 mmHg 96%
    21:00 -2°C° 0.5 mm 2 mps 578 mmHg 96%
    22:00 -2°C° 0.5 mm 2 mps 579 mmHg 96%
    23:00 -2°C° 0.2 mm 2 mps 579 mmHg 96%
    Show more